Precipitable_Water
0.52 0.52 0.51 0.51 0.51 0.52 0.50 0.49 0.49 0.50 0.48 0.48 0.46 0.45 0.44 0.45 0.44 0.45 0.45 0.45 0.43 0.43 0.43 0.42 0.43 0.45 0.46 0.45 0.46 0.46 0.46 0.40 0.36 0.36 0.30 0.43 0.44 0.47 0.45 0.44 0.39 0.36 0.34 0.29 0.29 0.26 0.22 0.22 0.22 0.21 0.22 0.24 0.21 0.25 0.21 0.24 0.19 0.17 0.12 0.16 0.14 0.17 0.15 0.20 0.18 0.19 0.24 0.22 0.24 0.24 0.23 0.22 0.22 0.27 0.29 0.31 0.29 0.29 0.30 0.30 0.34 0.36 0.36 0.38 0.41 0.42 0.44 0.45
0.51 0.51 0.52 0.51 0.51 0.52 0.50 0.49 0.50 0.48 0.48 0.47 0.46 0.45 0.45 0.46 0.47 0.46 0.45 0.45 0.44 0.43 0.43 0.46 0.45 0.46 0.47 0.47 0.46 0.47 0.45 0.41 0.34 0.31 0.30 0.44 0.49 0.49 0.44 0.40 0.37 0.36 0.35 0.33 0.26 0.24 0.22 0.22 0.22 0.21 0.21 0.22 0.22 0.19 0.27 0.20 0.20 0.22 0.21 0.16 0.15 0.21 0.22 0.24 0.23 0.23 0.24 0.23 0.24 0.25 0.25 0.25 0.26 0.28 0.31 0.25 0.27 0.29 0.28 0.31 0.33 0.33 0.36 0.39 0.41 0.42 0.42 0.44
0.50 0.52 0.51 0.51 0.51 0.51 0.51 0.50 0.49 0.48 0.49 0.47 0.46 0.47 0.47 0.47 0.47 0.47 0.47 0.46 0.46 0.45 0.46 0.47 0.47 0.48 0.47 0.49 0.49 0.48 0.44 0.38 0.36 0.28 0.35 0.47 0.51 0.47 0.42 0.40 0.37 0.39 0.36 0.30 0.30 0.27 0.24 0.24 0.22 0.20 0.20 0.20 0.19 0.21 0.23 0.23 0.21 0.20 0.18 0.21 0.20 0.24 0.25 0.26 0.25 0.24 0.26 0.26 0.25 0.25 0.25 0.25 0.28 0.29 0.32 0.26 0.26 0.29 0.27 0.28 0.31 0.31 0.32 0.36 0.39 0.41 0.41 0.42
0.52 0.50 0.51 0.49 0.50 0.50 0.50 0.50 0.49 0.50 0.49 0.51 0.49 0.49 0.49 0.49 0.47 0.47 0.47 0.48 0.48 0.48 0.48 0.47 0.48 0.49 0.50 0.49 0.50 0.49 0.45 0.29 0.33 0.35 0.43 0.48 0.48 0.45 0.40 0.38 0.40 0.40 0.40 0.40 0.34 0.31 0.29 0.26 0.24 0.21 0.19 0.19 0.19 0.19 0.23 0.24 0.24 0.23 0.21 0.22 0.22 0.24 0.22 0.21 0.24 0.23 0.26 0.28 0.26 0.26 0.28 0.25 0.28 0.30 0.29 0.28 0.25 0.25 0.29 0.33 0.31 0.31 0.34 0.36 0.39 0.39 0.41 0.41
0.52 0.52 0.52 0.51 0.50 0.51 0.50 0.50 0.48 0.52 0.52 0.51 0.52 0.51 0.50 0.50 0.49 0.48 0.49 0.49 0.50 0.49 0.49 0.49 0.49 0.50 0.51 0.51 0.47 0.50 0.33 0.22 0.30 0.38 0.43 0.45 0.45 0.42 0.40 0.38 0.38 0.39 0.40 0.39 0.38 0.34 0.30 0.26 0.23 0.21 0.22 0.19 0.20 0.22 0.22 0.25 0.25 0.23 0.21 0.25 0.24 0.24 0.23 0.26 0.26 0.27 0.26 0.28 0.27 0.27 0.25 0.25 0.32 0.31 0.29 0.27 0.24 0.25 0.31 0.34 0.36 0.36 0.38 0.38 0.38 0.39 0.42 0.41
0.54 0.55 0.54 0.53 0.53 0.52 0.51 0.51 0.50 0.51 0.53 0.52 0.52 0.52 0.52 0.51 0.50 0.51 0.50 0.51 0.50 0.50 0.50 0.50 0.51 0.51 0.52 0.50 0.46 0.46 0.28 0.20 0.31 0.38 0.51 0.45 0.45 0.41 0.38 0.38 0.38 0.38 0.39 0.39 0.36 0.34 0.29 0.26 0.21 0.20 0.20 0.19 0.21 0.20 0.25 0.26 0.28 0.23 0.25 0.25 0.26 0.26 0.25 0.29 0.28 0.28 0.28 0.27 0.26 0.25 0.27 0.30 0.28 0.27 0.29 0.29 0.27 0.31 0.36 0.37 0.38 0.38 0.39 0.40 0.41 0.41 0.41 0.41
0.59 0.56 0.55 0.54 0.53 0.52 0.52 0.52 0.52 0.51 0.52 0.53 0.53 0.54 0.52 0.52 0.51 0.51 0.52 0.50 0.51 0.52 0.53 0.52 0.54 0.55 0.51 0.47 0.51 0.37 0.28 0.31 0.48 0.46 0.52 0.48 0.42 0.38 0.39 0.40 0.39 0.41 0.43 0.38 0.36 0.33 0.30 0.25 0.22 0.21 0.21 0.20 0.22 0.22 0.24 0.25 0.29 0.25 0.22 0.26 0.26 0.27 0.26 0.30 0.30 0.30 0.29 0.28 0.26 0.29 0.31 0.26 0.27 0.24 0.30 0.28 0.32 0.34 0.36 0.38 0.38 0.39 0.41 0.42 0.40 0.41 0.41 0.41
0.63 0.60 0.59 0.54 0.53 0.52 0.51 0.52 0.53 0.53 0.52 0.54 0.54 0.53 0.53 0.52 0.52 0.52 0.51 0.52 0.52 0.52 0.54 0.55 0.55 0.56 0.52 0.45 0.38 0.34 0.31 0.35 0.48 0.54 0.50 0.48 0.46 0.44 0.44 0.46 0.46 0.47 0.45 0.39 0.37 0.33 0.34 0.28 0.24 0.25 0.22 0.21 0.24 0.24 0.27 0.25 0.27 0.24 0.24 0.26 0.28 0.28 0.29 0.30 0.31 0.30 0.30 0.30 0.31 0.31 0.27 0.27 0.29 0.28 0.30 0.29 0.33 0.35 0.37 0.38 0.39 0.41 0.41 0.41 0.40 0.40 0.41 0.42
0.65 0.64 0.62 0.57 0.53 0.52 0.51 0.50 0.52 0.53 0.52 0.53 0.54 0.53 0.53 0.53 0.53 0.52 0.52 0.52 0.53 0.54 0.54 0.57 0.57 0.55 0.55 0.44 0.35 0.23 0.29 0.52 0.60 0.59 0.55 0.53 0.49 0.47 0.50 0.48 0.49 0.46 0.43 0.43 0.40 0.39 0.34 0.30 0.30 0.29 0.24 0.25 0.28 0.25 0.28 0.26 0.24 0.29 0.29 0.30 0.31 0.30 0.32 0.33 0.32 0.32 0.32 0.31 0.32 0.29 0.28 0.30 0.31 0.33 0.30 0.32 0.34 0.37 0.38 0.39 0.40 0.40 0.39 0.39 0.39 0.40 0.42 0.42
0.63 0.63 0.62 0.59 0.56 0.53 0.50 0.49 0.50 0.51 0.51 0.52 0.52 0.53 0.53 0.53 0.53 0.53 0.53 0.53 0.53 0.55 0.55 0.57 0.58 0.57 0.48 0.40 0.38 0.22 0.47 0.63 0.65 0.64 0.58 0.53 0.52 0.48 0.47 0.50 0.47 0.46 0.40 0.41 0.42 0.38 0.34 0.35 0.34 0.36 0.33 0.29 0.30 0.28 0.31 0.29 0.27 0.33 0.32 0.33 0.32 0.34 0.34 0.36 0.34 0.34 0.35 0.34 0.35 0.31 0.30 0.31 0.34 0.32 0.27 0.35 0.37 0.39 0.38 0.38 0.40 0.39 0.38 0.39 0.39 0.41 0.43 0.43
0.61 0.61 0.62 0.60 0.58 0.55 0.52 0.50 0.50 0.49 0.50 0.51 0.52 0.53 0.53 0.53 0.53 0.53 0.54 0.54 0.55 0.55 0.56 0.57 0.62 0.55 0.44 0.40 0.27 0.22 0.63 0.65 0.66 0.60 0.56 0.54 0.51 0.48 0.50 0.48 0.48 0.46 0.43 0.43 0.39 0.42 0.42 0.39 0.38 0.37 0.33 0.29 0.32 0.31 0.31 0.32 0.35 0.34 0.34 0.34 0.34 0.35 0.35 0.36 0.36 0.35 0.35 0.33 0.35 0.34 0.31 0.33 0.33 0.33 0.30 0.35 0.39 0.40 0.38 0.38 0.38 0.38 0.38 0.38 0.39 0.41 0.43 0.44
0.61 0.60 0.61 0.60 0.59 0.57 0.53 0.51 0.50 0.49 0.50 0.51 0.52 0.54 0.53 0.53 0.54 0.54 0.55 0.55 0.55 0.56 0.58 0.58 0.59 0.55 0.48 0.37 0.27 0.32 0.64 0.65 0.66 0.61 0.58 0.57 0.52 0.52 0.52 0.49 0.49 0.49 0.46 0.39 0.42 0.43 0.41 0.42 0.39 0.35 0.29 0.38 0.28 0.32 0.32 0.37 0.35 0.34 0.34 0.28 0.31 0.32 0.31 0.34 0.32 0.34 0.35 0.32 0.36 0.35 0.31 0.29 0.30 0.28 0.33 0.36 0.39 0.39 0.38 0.37 0.37 0.37 0.37 0.38 0.39 0.41 0.43 0.44
0.62 0.61 0.60 0.59 0.58 0.56 0.56 0.53 0.52 0.51 0.51 0.52 0.53 0.55 0.55 0.54 0.55 0.55 0.55 0.55 0.56 0.57 0.58 0.60 0.58 0.60 0.43 0.27 0.35 0.54 0.62 0.64 0.59 0.56 0.55 0.55 0.53 0.55 0.53 0.54 0.52 0.51 0.49 0.48 0.45 0.46 0.45 0.44 0.42 0.36 0.39 0.35 0.33 0.28 0.35 0.38 0.35 0.35 0.34 0.31 0.29 0.29 0.28 0.33 0.36 0.36 0.34 0.34 0.36 0.34 0.21 0.23 0.28 0.32 0.36 0.39 0.39 0.38 0.37 0.36 0.37 0.38 0.38 0.38 0.39 0.40 0.42 0.44
0.63 0.62 0.59 0.59 0.60 0.56 0.55 0.54 0.53 0.52 0.52 0.53 0.55 0.56 0.56 0.56 0.56 0.57 0.56 0.55 0.57 0.59 0.60 0.59 0.60 0.51 0.41 0.31 0.45 0.59 0.65 0.62 0.58 0.53 0.50 0.54 0.52 0.49 0.53 0.54 0.54 0.53 0.53 0.50 0.49 0.50 0.47 0.47 0.46 0.41 0.42 0.36 0.32 0.42 0.35 0.34 0.36 0.29 0.32 0.31 0.26 0.25 0.25 0.33 0.33 0.35 0.32 0.36 0.36 0.35 0.22 0.24 0.29 0.32 0.37 0.39 0.40 0.38 0.37 0.37 0.37 0.38 0.38 0.38 0.39 0.39 0.41 0.43
0.64 0.62 0.60 0.61 0.61 0.58 0.55 0.53 0.53 0.54 0.53 0.54 0.55 0.56 0.57 0.56 0.57 0.58 0.57 0.55 0.60 0.61 0.59 0.61 0.57 0.46 0.34 0.37 0.56 0.63 0.67 0.63 0.50 0.50 0.55 0.50 0.48 0.45 0.47 0.50 0.49 0.50 0.50 0.50 0.48 0.49 0.49 0.48 0.44 0.38 0.34 0.41 0.40 0.35 0.31 0.30 0.31 0.31 0.26 0.23 0.28 0.26 0.28 0.33 0.36 0.35 0.30 0.34 0.37 0.33 0.24 0.25 0.30 0.34 0.38 0.40 0.41 0.41 0.39 0.40 0.40 0.40 0.39 0.39 0.40 0.40 0.42 0.45
0.67 0.64 0.62 0.61 0.62 0.60 0.57 0.54 0.52 0.54 0.54 0.55 0.55 0.56 0.60 0.60 0.59 0.58 0.59 0.58 0.59 0.62 0.61 0.48 0.51 0.44 0.33 0.26 0.45 0.70 0.58 0.42 0.43 0.56 0.58 0.58 0.53 0.46 0.48 0.48 0.49 0.49 0.49 0.48 0.50 0.48 0.48 0.46 0.38 0.38 0.35 0.37 0.33 0.30 0.28 0.27 0.28 0.30 0.26 0.24 0.25 0.29 0.29 0.30 0.35 0.37 0.37 0.35 0.36 0.33 0.25 0.29 0.29 0.35 0.38 0.41 0.41 0.41 0.41 0.41 0.42 0.42 0.42 0.42 0.42 0.43 0.44 0.45
0.71 0.68 0.64 0.62 0.64 0.63 0.60 0.56 0.54 0.53 0.55 0.56 0.57 0.58 0.61 0.60 0.61 0.58 0.58 0.60 0.58 0.62 0.56 0.44 0.44 0.47 0.24 0.44 0.61 0.42 0.38 0.48 0.59 0.56 0.54 0.58 0.56 0.50 0.48 0.45 0.43 0.44 0.47 0.47 0.47 0.46 0.45 0.40 0.41 0.39 0.38 0.32 0.32 0.31 0.25 0.23 0.23 0.27 0.30 0.27 0.30 0.28 0.30 0.28 0.34 0.37 0.37 0.35 0.31 0.34 0.29 0.30 0.33 0.36 0.38 0.41 0.42 0.42 0.41 0.41 0.43 0.44 0.44 0.44 0.44 0.44 0.44 0.45
0.74 0.71 0.68 0.65 0.65 0.66 0.62 0.59 0.56 0.55 0.56 0.55 0.58 0.59 0.57 0.62 0.62 0.58 0.54 0.55 0.59 0.55 0.55 0.58 0.48 0.38 0.29 0.41 0.27 0.32 0.46 0.46 0.53 0.57 0.56 0.57 0.58 0.52 0.47 0.42 0.43 0.43 0.43 0.41 0.45 0.39 0.41 0.35 0.37 0.30 0.31 0.31 0.31 0.28 0.22 0.18 0.23 0.27 0.30 0.29 0.31 0.33 0.32 0.30 0.29 0.34 0.36 0.35 0.32 0.32 0.31 0.31 0.34 0.37 0.39 0.41 0.44 0.43 0.43 0.44 0.44 0.46 0.46 0.46 0.45 0.45 0.45 0.45
0.75 0.72 0.69 0.67 0.66 0.66 0.66 0.62 0.58 0.59 0.58 0.60 0.63 0.67 0.64 0.63 0.59 0.59 0.50 0.47 0.40 0.31 0.23 0.28 0.31 0.17 0.15 0.36 0.46 0.47 0.51 0.56 0.59 0.54 0.48 0.51 0.54 0.53 0.50 0.48 0.45 0.39 0.35 0.33 0.35 0.37 0.38 0.35 0.35 0.29 0.24 0.26 0.26 0.28 0.25 0.26 0.28 0.28 0.30 0.31 0.31 0.29 0.30 0.31 0.34 0.38 0.36 0.33 0.32 0.32 0.30 0.31 0.33 0.35 0.37 0.40 0.42 0.42 0.43 0.45 0.45 0.46 0.47 0.47 0.46 0.46 0.46 0.46
0.75 0.74 0.71 0.69 0.68 0.70 0.69 0.65 0.60 0.60 0.62 0.60 0.59 0.57 0.53 0.34 0.37 0.33 0.43 0.44 0.31 0.24 0.24 0.35 0.35 0.34 0.36 0.38 0.39 0.51 0.59 0.60 0.46 0.54 0.53 0.55 0.50 0.48 0.46 0.45 0.41 0.40 0.34 0.28 0.32 0.35 0.38 0.27 0.24 0.22 0.24 0.28 0.31 0.31 0.31 0.32 0.33 0.33 0.32 0.31 0.30 0.30 0.31 0.34 0.36 0.38 0.39 0.34 0.32 0.33 0.34 0.33 0.35 0.37 0.39 0.40 0.42 0.42 0.42 0.41 0.42 0.44 0.45 0.47 0.47 0.46 0.46 0.47
0.75 0.75 0.73 0.71 0.71 0.70 0.69 0.67 0.64 0.63 0.62 0.63 0.59 0.46 0.31 0.26 0.22 0.20 0.34 0.35 0.33 0.30 0.27 0.36 0.38 0.36 0.37 0.43 0.45 0.44 0.38 0.43 0.49 0.49 0.51 0.59 0.53 0.45 0.40 0.41 0.36 0.30 0.32 0.35 0.33 0.38 0.36 0.26 0.25 0.27 0.29 0.32 0.34 0.36 0.36 0.34 0.34 0.32 0.31 0.30 0.29 0.32 0.29 0.35 0.36 0.39 0.40 0.35 0.32 0.35 0.34 0.33 0.35 0.37 0.40 0.42 0.41 0.40 0.41 0.43 0.43 0.44 0.45 0.47 0.47 0.47 0.47 0.48
0.76 0.74 0.74 0.73 0.73 0.72 0.73 0.71 0.68 0.66 0.68 0.65 0.57 0.38 0.43 0.46 0.49 0.53 0.42 0.27 0.39 0.41 0.38 0.31 0.37 0.40 0.46 0.45 0.47 0.48 0.43 0.35 0.38 0.45 0.55 0.53 0.47 0.37 0.38 0.37 0.33 0.28 0.35 0.36 0.36 0.31 0.27 0.23 0.27 0.31 0.35 0.36 0.36 0.36 0.37 0.35 0.33 0.34 0.31 0.31 0.30 0.31 0.35 0.38 0.39 0.40 0.40 0.37 0.32 0.35 0.33 0.34 0.37 0.39 0.42 0.43 0.42 0.43 0.46 0.46 0.46 0.46 0.46 0.47 0.47 0.47 0.48 0.50
0.78 0.75 0.74 0.74 0.72 0.74 0.77 0.75 0.69 0.72 0.66 0.55 0.45 0.43 0.45 0.56 0.62 0.62 0.51 0.35 0.27 0.35 0.38 0.38 0.32 0.33 0.37 0.45 0.44 0.46 0.32 0.29 0.28 0.39 0.45 0.49 0.43 0.40 0.38 0.34 0.32 0.32 0.34 0.34 0.27 0.26 0.23 0.26 0.31 0.35 0.37 0.36 0.36 0.36 0.36 0.36 0.35 0.33 0.32 0.30 0.28 0.33 0.32 0.29 0.36 0.40 0.40 0.38 0.34 0.36 0.33 0.34 0.37 0.40 0.41 0.44 0.45 0.45 0.46 0.46 0.46 0.46 0.46 0.47 0.47 0.48 0.49 0.49
0.85 0.79 0.75 0.74 0.73 0.73 0.76 0.75 0.74 0.71 0.62 0.53 0.48 0.49 0.61 0.63 0.62 0.60 0.40 0.25 0.22 0.28 0.33 0.33 0.33 0.33 0.33 0.31 0.42 0.38 0.30 0.32 0.34 0.36 0.53 0.46 0.37 0.43 0.39 0.35 0.31 0.32 0.31 0.34 0.31 0.28 0.26 0.32 0.40 0.39 0.39 0.37 0.34 0.36 0.35 0.34 0.31 0.34 0.34 0.33 0.32 0.33 0.36 0.35 0.36 0.40 0.41 0.40 0.40 0.37 0.33 0.31 0.33 0.33 0.35 0.39 0.45 0.46 0.47 0.47 0.47 0.49 0.48 0.49 0.50 0.50 0.50 0.50
0.93 0.87 0.80 0.75 0.73 0.73 0.75 0.77 0.63 0.60 0.64 0.58 0.49 0.62 0.70 0.69 0.64 0.60 0.34 0.27 0.26 0.25 0.41 0.39 0.45 0.41 0.42 0.53 0.47 0.35 0.36 0.38 0.39 0.47 0.51 0.47 0.41 0.39 0.35 0.40 0.35 0.30 0.32 0.35 0.34 0.31 0.30 0.38 0.43 0.39 0.37 0.36 0.35 0.33 0.34 0.34 0.31 0.33 0.36 0.36 0.36 0.38 0.37 0.39 0.40 0.38 0.34 0.31 0.37 0.36 0.25 0.23 0.31 0.34 0.34 0.38 0.40 0.42 0.46 0.45 0.45 0.46 0.47 0.48 0.47 0.48 0.51 0.52
1.02 0.96 0.89 0.82 0.75 0.75 0.81 0.59 0.54 0.63 0.57 0.47 0.50 0.61 0.67 0.68 0.71 0.55 0.36 0.23 0.17 0.27 0.40 0.27 0.47 0.34 0.51 0.39 0.42 0.38 0.39 0.29 0.42 0.48 0.51 0.49 0.53 0.42 0.40 0.35 0.36 0.27 0.32 0.34 0.33 0.34 0.34 0.40 0.40 0.36 0.36 0.35 0.35 0.34 0.37 0.37 0.32 0.31 0.33 0.43 0.41 0.40 0.39 0.39 0.38 0.37 0.29 0.26 0.35 0.41 0.27 0.21 0.30 0.31 0.34 0.37 0.38 0.39 0.44 0.45 0.45 0.47 0.47 0.47 0.47 0.48 0.48 0.50
1.12 1.06 1.00 0.92 0.85 0.84 0.60 0.43 0.62 0.62 0.46 0.45 0.60 0.67 0.67 0.62 0.74 0.57 0.26 0.21 0.16 0.29 0.24 0.39 0.36 0.41 0.49 0.44 0.41 0.39 0.18 0.24 0.46 0.50 0.48 0.52 0.43 0.51 0.33 0.32 0.36 0.37 0.37 0.38 0.34 0.30 0.37 0.37 0.37 0.37 0.35 0.34 0.33 0.32 0.38 0.39 0.34 0.30 0.43 0.44 0.43 0.41 0.39 0.38 0.39 0.38 0.35 0.41 0.42 0.42 0.38 0.28 0.23 0.26 0.36 0.39 0.38 0.39 0.40 0.42 0.45 0.46 0.47 0.47 0.47 0.47 0.47 0.49
1.22 1.15 1.08 1.01 0.95 0.90 0.63 0.63 0.58 0.50 0.45 0.61 0.64 0.66 0.70 0.64 0.64 0.57 0.25 0.15 0.13 0.36 0.27 0.37 0.38 0.57 0.46 0.46 0.47 0.31 0.31 0.43 0.29 0.41 0.49 0.52 0.49 0.42 0.37 0.32 0.32 0.32 0.36 0.36 0.24 0.37 0.37 0.34 0.35 0.34 0.34 0.33 0.32 0.36 0.41 0.43 0.37 0.38 0.48 0.48 0.45 0.44 0.44 0.43 0.41 0.39 0.39 0.37 0.30 0.36 0.40 0.30 0.24 0.28 0.36 0.39 0.35 0.36 0.37 0.41 0.44 0.46 0.47 0.46 0.46 0.47 0.48 0.48
1.30 1.25 1.17 1.10 1.03 0.99 0.91 0.75 0.65 0.52 0.63 0.66 0.69 0.65 0.67 0.73 0.56 0.31 0.23 0.14 0.38 0.34 0.65 0.37 0.62 0.49 0.45 0.48 0.41 0.40 0.37 0.41 0.28 0.40 0.51 0.53 0.53 0.45 0.34 0.36 0.39 0.38 0.40 0.38 0.29 0.36 0.42 0.42 0.40 0.40 0.36 0.32 0.37 0.42 0.44 0.44 0.37 0.45 0.48 0.49 0.48 0.48 0.46 0.45 0.41 0.39 0.39 0.35 0.26 0.32 0.37 0.28 0.21 0.28 0.32 0.38 0.36 0.35 0.38 0.41 0.43 0.45 0.46 0.47 0.46 0.47 0.49 0.49
1.34 1.30 1.25 1.20 1.11 1.01 0.91 0.90 0.74 0.76 0.74 0.74 0.73 0.70 0.68 0.60 0.42 0.22 0.24 0.14 0.29 0.23 0.39 0.45 0.41 0.36 0.43 0.34 0.36 0.40 0.34 0.38 0.40 0.44 0.46 0.43 0.47 0.52 0.47 0.51 0.42 0.39 0.38 0.40 0.37 0.39 0.44 0.51 0.52 0.44 0.39 0.41 0.42 0.44 0.46 0.45 0.47 0.51 0.50 0.46 0.45 0.45 0.44 0.45 0.43 0.41 0.37 0.27 0.26 0.34 0.37 0.34 0.22 0.26 0.31 0.32 0.33 0.39 0.41 0.42 0.44 0.46 0.47 0.48 0.48 0.48 0.48 0.48
1.37 1.34 1.28 1.25 1.04 1.01 1.00 0.80 0.81 0.90 0.82 0.79 0.77 0.71 0.60 0.47 0.28 0.20 0.17 0.18 0.29 0.36 0.43 0.40 0.35 0.45 0.37 0.32 0.31 0.40 0.38 0.38 0.39 0.41 0.38 0.45 0.43 0.46 0.45 0.42 0.48 0.39 0.38 0.38 0.36 0.39 0.41 0.44 0.44 0.47 0.50 0.48 0.47 0.42 0.47 0.50 0.50 0.49 0.45 0.43 0.42 0.41 0.43 0.39 0.38 0.40 0.28 0.21 0.30 0.36 0.37 0.38 0.25 0.25 0.33 0.39 0.41 0.43 0.43 0.42 0.43 0.44 0.45 0.46 0.47 0.48 0.48 0.48
1.37 1.36 1.33 1.23 1.16 1.19 0.92 0.82 0.99 1.02 0.92 0.88 0.76 0.58 0.45 0.26 0.34 0.20 0.17 0.26 0.18 0.24 0.30 0.32 0.41 0.37 0.35 0.37 0.32 0.33 0.33 0.38 0.42 0.41 0.37 0.38 0.36 0.36 0.37 0.30 0.34 0.27 0.27 0.29 0.28 0.38 0.35 0.37 0.43 0.46 0.53 0.48 0.45 0.42 0.45 0.49 0.50 0.48 0.45 0.43 0.35 0.32 0.32 0.25 0.30 0.24 0.24 0.21 0.30 0.37 0.38 0.34 0.28 0.29 0.36 0.39 0.41 0.43 0.45 0.45 0.44 0.45 0.46 0.47 0.47 0.48 0.48 0.49
1.38 1.36 1.35 1.30 1.24 1.11 1.09 1.16 1.13 1.07 1.04 0.97 0.78 0.61 0.35 0.25 0.19 0.23 0.21 0.22 0.19 0.35 0.36 0.39 0.35 0.38 0.37 0.35 0.33 0.37 0.42 0.32 0.41 0.41 0.42 0.42 0.38 0.38 0.41 0.40 0.40 0.33 0.24 0.31 0.31 0.32 0.33 0.43 0.43 0.44 0.47 0.50 0.48 0.38 0.39 0.40 0.44 0.44 0.41 0.39 0.34 0.28 0.26 0.22 0.25 0.29 0.28 0.31 0.37 0.37 0.42 0.30 0.32 0.36 0.41 0.41 0.45 0.46 0.46 0.47 0.47 0.47 0.47 0.47 0.47 0.48 0.48 0.49
1.35 1.34 1.25 1.26 1.23 1.19 1.17 1.19 1.15 1.11 1.02 0.94 0.76 0.59 0.42 0.26 0.22 0.26 0.23 0.24 0.29 0.46 0.47 0.40 0.41 0.43 0.40 0.32 0.36 0.39 0.33 0.40 0.38 0.38 0.41 0.38 0.38 0.34 0.39 0.43 0.44 0.39 0.37 0.38 0.32 0.33 0.27 0.28 0.37 0.42 0.37 0.50 0.49 0.47 0.45 0.44 0.44 0.44 0.49 0.44 0.37 0.34 0.28 0.23 0.26 0.24 0.25 0.29 0.33 0.39 0.34 0.27 0.27 0.30 0.41 0.42 0.45 0.47 0.48 0.49 0.49 0.49 0.48 0.48 0.49 0.49 0.49 0.48
1.35 1.32 1.29 1.27 1.25 1.23 1.22 1.19 1.15 1.14 1.02 0.84 0.68 0.51 0.37 0.31 0.30 0.27 0.27 0.25 0.31 0.41 0.40 0.48 0.41 0.39 0.39 0.41 0.46 0.45 0.41 0.34 0.42 0.40 0.39 0.37 0.33 0.34 0.33 0.35 0.42 0.44 0.43 0.34 0.38 0.38 0.32 0.31 0.41 0.52 0.52 0.55 0.49 0.54 0.56 0.51 0.47 0.49 0.50 0.51 0.42 0.36 0.43 0.30 0.32 0.33 0.31 0.31 0.30 0.31 0.30 0.34 0.32 0.40 0.42 0.43 0.44 0.45 0.47 0.48 0.48 0.48 0.48 0.48 0.47 0.47 0.47 0.48
1.31 1.23 1.28 1.15 1.12 1.17 1.26 1.21 1.16 1.10 0.92 0.75 0.57 0.45 0.38 0.36 0.28 0.30 0.29 0.35 0.39 0.36 0.40 0.44 0.43 0.37 0.37 0.39 0.45 0.42 0.50 0.39 0.41 0.41 0.39 0.40 0.39 0.36 0.40 0.41 0.41 0.44 0.40 0.33 0.39 0.33 0.37 0.33 0.48 0.52 0.56 0.53 0.53 0.56 0.55 0.56 0.34 0.43 0.47 0.38 0.41 0.52 0.48 0.39 0.39 0.40 0.39 0.36 0.27 0.35 0.32 0.34 0.40 0.39 0.41 0.42 0.42 0.43 0.46 0.47 0.47 0.47 0.47 0.47 0.46 0.46 0.47 0.47
1.17 1.18 1.03 1.09 1.08 1.20 1.26 1.24 1.14 1.03 0.93 0.72 0.55 0.43 0.45 0.44 0.43 0.37 0.37 0.36 0.39 0.42 0.41 0.30 0.36 0.35 0.34 0.36 0.39 0.42 0.44 0.46 0.43 0.41 0.34 0.43 0.39 0.42 0.42 0.44 0.49 0.47 0.48 0.44 0.41 0.48 0.36 0.38 0.51 0.50 0.47 0.55 0.59 0.59 0.58 0.59 0.56 0.48 0.39 0.43 0.54 0.57 0.53 0.44 0.32 0.34 0.32 0.28 0.26 0.33 0.28 0.30 0.31 0.24 0.38 0.40 0.39 0.41 0.44 0.45 0.46 0.47 0.47 0.45 0.46 0.47 0.46 0.46
1.10 1.08 1.05 1.05 1.12 1.24 1.29 1.28 1.16 0.99 0.85 0.68 0.52 0.48 0.53 0.45 0.50 0.47 0.45 0.41 0.46 0.44 0.37 0.32 0.35 0.41 0.37 0.37 0.37 0.40 0.45 0.38 0.38 0.41 0.36 0.42 0.33 0.46 0.44 0.44 0.51 0.49 0.50 0.55 0.45 0.47 0.49 0.37 0.44 0.52 0.51 0.54 0.60 0.58 0.54 0.58 0.61 0.49 0.46 0.59 0.44 0.36 0.36 0.43 0.40 0.27 0.27 0.25 0.26 0.29 0.31 0.30 0.30 0.28 0.33 0.34 0.37 0.40 0.42 0.44 0.45 0.45 0.45 0.45 0.46 0.47 0.47 0.48
1.10 1.05 0.88 1.03 1.23 1.25 1.26 1.28 1.12 0.92 0.74 0.59 0.54 0.49 0.53 0.49 0.50 0.51 0.49 0.48 0.50 0.48 0.39 0.36 0.33 0.44 0.39 0.39 0.41 0.44 0.43 0.35 0.40 0.39 0.35 0.40 0.34 0.43 0.43 0.47 0.46 0.52 0.54 0.55 0.50 0.51 0.53 0.38 0.40 0.53 0.51 0.54 0.55 0.52 0.38 0.45 0.56 0.58 0.57 0.51 0.56 0.48 0.40 0.37 0.37 0.38 0.35 0.27 0.27 0.22 0.30 0.24 0.31 0.33 0.37 0.37 0.39 0.41 0.42 0.43 0.44 0.45 0.45 0.46 0.46 0.46 0.46 0.46
0.96 0.86 0.82 1.09 1.25 1.24 1.25 1.20 0.96 0.82 0.67 0.53 0.56 0.51 0.54 0.51 0.54 0.57 0.56 0.52 0.48 0.47 0.43 0.40 0.43 0.38 0.43 0.40 0.45 0.40 0.46 0.43 0.41 0.39 0.39 0.39 0.37 0.48 0.44 0.52 0.47 0.51 0.55 0.57 0.52 0.57 0.48 0.52 0.36 0.45 0.55 0.52 0.41 0.46 0.42 0.45 0.43 0.46 0.46 0.44 0.47 0.46 0.51 0.47 0.44 0.39 0.34 0.30 0.28 0.25 0.22 0.24 0.33 0.40 0.39 0.40 0.41 0.42 0.43 0.44 0.45 0.45 0.46 0.46 0.46 0.46 0.47 0.47
1.00 0.83 0.81 1.14 1.19 1.24 1.18 1.00 0.78 0.65 0.60 0.63 0.64 0.56 0.58 0.54 0.57 0.61 0.62 0.58 0.53 0.58 0.50 0.48 0.46 0.41 0.41 0.42 0.43 0.49 0.45 0.45 0.45 0.39 0.39 0.40 0.39 0.34 0.49 0.48 0.52 0.50 0.57 0.56 0.54 0.54 0.48 0.47 0.39 0.43 0.43 0.41 0.42 0.52 0.52 0.52 0.50 0.47 0.45 0.42 0.44 0.43 0.40 0.36 0.31 0.43 0.39 0.35 0.28 0.27 0.22 0.26 0.37 0.43 0.42 0.42 0.43 0.44 0.45 0.46 0.46 0.46 0.47 0.47 0.47 0.48 0.48 0.48
0.81 0.66 0.74 1.10 1.18 1.19 0.98 0.70 0.68 0.74 0.64 0.57 0.54 0.57 0.55 0.64 0.60 0.59 0.59 0.60 0.55 0.52 0.59 0.53 0.52 0.47 0.44 0.43 0.44 0.49 0.48 0.46 0.46 0.43 0.42 0.36 0.42 0.42 0.47 0.55 0.54 0.55 0.50 0.46 0.46 0.54 0.53 0.51 0.46 0.40 0.41 0.43 0.49 0.54 0.58 0.58 0.56 0.53 0.50 0.45 0.50 0.48 0.46 0.38 0.29 0.33 0.40 0.37 0.39 0.35 0.29 0.24 0.40 0.43 0.44 0.44 0.45 0.46 0.47 0.48 0.47 0.47 0.48 0.48 0.49 0.49 0.49 0.50
0.74 0.70 1.04 1.14 1.17 1.06 0.86 0.65 0.68 0.66 0.61 0.61 0.67 0.69 0.73 0.66 0.61 0.61 0.57 0.59 0.54 0.56 0.53 0.52 0.50 0.49 0.49 0.47 0.46 0.48 0.51 0.47 0.48 0.44 0.43 0.44 0.43 0.47 0.53 0.55 0.57 0.55 0.55 0.51 0.54 0.58 0.61 0.50 0.44 0.45 0.51 0.53 0.55 0.57 0.57 0.57 0.55 0.50 0.50 0.52 0.50 0.44 0.45 0.42 0.40 0.42 0.37 0.37 0.34 0.33 0.29 0.28 0.39 0.46 0.45 0.46 0.47 0.48 0.49 0.48 0.47 0.48 0.49 0.49 0.49 0.49 0.49 0.49
0.72 0.73 0.85 1.12 1.18 1.05 0.76 0.54 0.54 0.58 0.62 0.64 0.66 0.64 0.71 0.69 0.64 0.59 0.58 0.56 0.53 0.52 0.51 0.49 0.53 0.56 0.51 0.54 0.52 0.49 0.56 0.45 0.52 0.49 0.47 0.50 0.46 0.55 0.57 0.56 0.58 0.53 0.51 0.50 0.46 0.58 0.47 0.49 0.47 0.41 0.41 0.44 0.46 0.49 0.49 0.53 0.53 0.47 0.46 0.49 0.52 0.52 0.51 0.50 0.49 0.47 0.38 0.34 0.36 0.33 0.24 0.26 0.39 0.46 0.47 0.46 0.47 0.47 0.48 0.49 0.50 0.49 0.49 0.50 0.49 0.50 0.50 0.50
0.74 0.78 0.81 0.92 1.04 0.97 0.67 0.68 0.61 0.58 0.59 0.57 0.59 0.57 0.61 0.63 0.67 0.67 0.62 0.57 0.59 0.55 0.54 0.50 0.51 0.55 0.55 0.56 0.54 0.55 0.59 0.52 0.44 0.54 0.52 0.51 0.51 0.60 0.60 0.58 0.58 0.54 0.56 0.59 0.57 0.62 0.52 0.49 0.47 0.38 0.33 0.29 0.28 0.28 0.30 0.36 0.42 0.48 0.50 0.49 0.52 0.50 0.48 0.47 0.40 0.40 0.35 0.32 0.39 0.34 0.28 0.33 0.42 0.45 0.45 0.46 0.46 0.46 0.48 0.50 0.51 0.52 0.50 0.49 0.49 0.50 0.50 0.51
0.65 0.51 0.69 0.78 0.88 0.83 0.80 0.81 0.73 0.64 0.60 0.59 0.57 0.60 0.62 0.57 0.64 0.68 0.69 0.65 0.65 0.61 0.59 0.56 0.58 0.58 0.56 0.54 0.50 0.50 0.50 0.55 0.50 0.48 0.52 0.51 0.55 0.59 0.62 0.60 0.59 0.57 0.59 0.60 0.61 0.60 0.51 0.54 0.51 0.47 0.42 0.37 0.37 0.41 0.48 0.50 0.48 0.43 0.44 0.48 0.48 0.50 0.52 0.50 0.46 0.41 0.32 0.34 0.38 0.35 0.34 0.36 0.39 0.42 0.44 0.46 0.47 0.46 0.47 0.49 0.50 0.50 0.51 0.51 0.51 0.51 0.51 0.51
0.70 0.56 0.59 0.56 0.76 0.76 0.68 0.73 0.69 0.68 0.59 0.65 0.54 0.59 0.55 0.56 0.58 0.64 0.73 0.61 0.68 0.64 0.61 0.59 0.58 0.54 0.51 0.51 0.48 0.47 0.49 0.48 0.53 0.51 0.49 0.49 0.55 0.57 0.64 0.62 0.61 0.61 0.62 0.61 0.63 0.59 0.51 0.48 0.49 0.49 0.48 0.47 0.47 0.47 0.52 0.51 0.46 0.46 0.46 0.46 0.50 0.50 0.50 0.48 0.43 0.34 0.41 0.42 0.33 0.35 0.43 0.39 0.35 0.44 0.46 0.47 0.48 0.49 0.49 0.50 0.51 0.51 0.51 0.50 0.51 0.52 0.53 0.53
0.51 0.61 0.67 0.73 0.60 0.55 0.58 0.60 0.69 0.66 0.65 0.66 0.59 0.63 0.57 0.57 0.58 0.55 0.65 0.67 0.67 0.71 0.61 0.62 0.59 0.57 0.52 0.50 0.50 0.46 0.46 0.45 0.47 0.45 0.48 0.51 0.52 0.56 0.55 0.61 0.58 0.62 0.61 0.60 0.64 0.56 0.50 0.45 0.48 0.50 0.48 0.49 0.49 0.49 0.53 0.54 0.51 0.50 0.50 0.49 0.48 0.49 0.49 0.44 0.41 0.43 0.47 0.41 0.32 0.35 0.44 0.40 0.38 0.44 0.48 0.49 0.50 0.50 0.50 0.52 0.52 0.53 0.53 0.52 0.52 0.52 0.52 0.52
0.63 0.61 0.65 0.75 0.59 0.64 0.64 0.63 0.67 0.65 0.63 0.65 0.60 0.61 0.57 0.57 0.55 0.59 0.59 0.61 0.65 0.65 0.67 0.53 0.54 0.53 0.55 0.58 0.55 0.49 0.48 0.43 0.42 0.46 0.45 0.47 0.50 0.51 0.50 0.54 0.60 0.63 0.61 0.58 0.60 0.60 0.52 0.46 0.47 0.50 0.48 0.48 0.48 0.49 0.53 0.53 0.53 0.53 0.52 0.50 0.50 0.48 0.45 0.44 0.44 0.47 0.48 0.44 0.42 0.42 0.45 0.43 0.43 0.46 0.51 0.52 0.55 0.54 0.54 0.54 0.53 0.52 0.52 0.52 0.52 0.52 0.52 0.52
0.58 0.53 0.52 0.66 0.66 0.63 0.65 0.66 0.65 0.63 0.57 0.63 0.54 0.57 0.58 0.56 0.54 0.59 0.66 0.63 0.56 0.60 0.69 0.59 0.55 0.59 0.61 0.62 0.59 0.52 0.50 0.50 0.46 0.43 0.50 0.50 0.52 0.54 0.51 0.51 0.51 0.60 0.61 0.56 0.57 0.61 0.52 0.45 0.50 0.52 0.49 0.46 0.47 0.51 0.54 0.54 0.53 0.50 0.51 0.52 0.49 0.46 0.44 0.45 0.48 0.48 0.48 0.47 0.45 0.45 0.45 0.43 0.46 0.54 0.55 0.56 0.56 0.56 0.54 0.52 0.52 0.52 0.52 0.52 0.51 0.51 0.52 0.53
0.73 0.74 0.69 0.57 0.52 0.58 0.61 0.62 0.60 0.58 0.55 0.58 0.54 0.56 0.58 0.58 0.55 0.60 0.60 0.68 0.63 0.58 0.63 0.59 0.59 0.62 0.66 0.64 0.62 0.59 0.58 0.56 0.55 0.54 0.57 0.58 0.51 0.58 0.54 0.55 0.61 0.54 0.56 0.55 0.56 0.56 0.55 0.49 0.54 0.52 0.45 0.43 0.46 0.48 0.50 0.53 0.53 0.51 0.48 0.47 0.44 0.42 0.42 0.45 0.44 0.45 0.46 0.42 0.43 0.46 0.44 0.38 0.44 0.56 0.57 0.56 0.56 0.55 0.53 0.53 0.52 0.53 0.53 0.52 0.51 0.52 0.53 0.54
0.75 0.79 0.77 0.65 0.48 0.56 0.53 0.59 0.60 0.57 0.49 0.56 0.58 0.56 0.56 0.55 0.59 0.64 0.57 0.68 0.70 0.71 0.69 0.66 0.65 0.64 0.62 0.62 0.60 0.61 0.61 0.65 0.67 0.69 0.70 0.70 0.71 0.68 0.68 0.65 0.63 0.58 0.56 0.55 0.59 0.55 0.55 0.52 0.48 0.48 0.43 0.41 0.42 0.48 0.50 0.50 0.49 0.43 0.42 0.37 0.38 0.44 0.50 0.51 0.50 0.50 0.48 0.48 0.46 0.42 0.39 0.46 0.53 0.57 0.55 0.55 0.56 0.56 0.55 0.53 0.53 0.53 0.54 0.53 0.53 0.53 0.54 0.55
Wind_Speed
18 17 17 17 16 16 16 16 16 15 15 14 14 13 12 12 12 11 11 10 10 9 9 8 8 7 7 7 6 6 6 6 7 7 7 7 7 7 7 7 7 7 6 6 6 6 6 6 5 6 6 5 5 5 5 5 5 5 5 5 6 6 5 5 4 5 5 4 5 5 6 6 4 5 5 5 6 6 5 3 4 4 3 3 3 3 4 4
18 18 18 17 17 17 16 16 16 16 15 15 14 14 13 13 12 11 11 11 10 10 9 8 8 7 7 7 7 7 7 7 7 6 6 7 7 7 7 7 7 7 6 6 6 6 6 6 6 6 7 6 5 5 6 6 6 6 5 6 7 6 5 5 4 5 5 4 5 5 6 6 4 4 5 6 7 7 6 4 4 3 3 4 4 4 4 4
19 18 18 18 18 17 17 17 17 16 16 15 15 14 14 13 12 12 11 11 10 10 9 9 8 8 8 7 7 7 7 7 7 7 6 6 7 7 7 7 7 6 6 6 6 7 7 6 6 7 7 7 5 6 6 6 6 6 6 6 7 6 6 6 5 5 6 5 5 4 6 7 6 5 6 7 7 7 6 5 5 4 4 5 4 5 4 4
19 19 19 19 18 18 18 17 17 17 17 16 15 15 14 14 13 12 12 11 11 10 10 9 9 9 8 8 8 8 7 7 7 7 7 7 7 7 7 7 6 6 6 6 7 7 7 8 8 7 8 7 6 7 6 6 7 6 7 7 7 7 7 7 6 5 6 7 6 4 6 7 6 6 7 8 8 7 6 6 5 4 4 5 5 5 5 4
20 20 19 19 19 19 18 18 18 18 17 17 16 15 15 14 14 13 12 12 11 11 10 10 10 9 9 8 8 8 8 8 8 8 7 7 7 7 7 7 7 7 7 7 7 8 8 8 8 8 8 7 6 7 7 6 7 7 7 7 6 8 7 6 6 6 7 7 7 6 7 8 7 7 8 9 9 8 7 6 6 5 5 6 6 6 6 5
21 20 20 20 20 19 19 19 19 19 18 17 17 16 15 15 14 14 13 13 12 12 11 11 10 10 9 9 9 8 8 8 8 8 8 8 8 8 8 8 8 8 8 8 8 8 8 8 9 9 8 7 7 7 7 7 7 7 7 7 7 8 8 6 6 7 8 8 8 8 8 8 9 10 10 10 9 8 8 8 7 7 7 7 7 7 6 6
22 21 21 21 20 20 20 20 19 19 19 18 18 17 16 16 15 14 14 13 13 12 12 11 11 10 10 10 10 10 10 9 9 9 8 8 9 9 9 9 9 9 9 9 9 9 9 9 9 9 9 8 7 7 7 8 8 8 8 7 7 9 8 7 8 8 9 9 9 9 9 10 11 11 10 10 9 9 9 9 9 8 8 8 8 7 7 6
23 22 22 22 21 21 21 21 20 20 20 19 18 18 17 16 16 15 15 14 14 13 13 12 12 11 10 10 10 10 11 10 10 10 10 9 9 10 10 10 10 10 10 10 10 10 9 10 9 9 9 8 8 8 7 9 9 9 9 8 8 10 9 9 9 10 10 11 11 10 10 12 12 11 11 11 10 10 11 10 10 10 9 9 9 8 8 7
24 23 23 22 22 22 22 22 21 21 21 20 19 19 18 17 17 16 16 15 15 14 14 13 12 12 11 11 11 11 11 11 11 11 11 11 10 11 11 10 11 10 10 10 10 10 10 10 9 9 9 9 9 9 8 8 9 9 9 9 10 11 11 11 11 12 12 12 11 11 12 14 13 11 12 12 11 11 11 11 11 10 10 10 10 9 8 8
25 24 24 23 23 23 22 22 22 22 21 21 20 19 19 18 18 17 17 16 16 15 15 14 13 13 12 12 12 12 11 11 11 11 11 11 11 11 11 11 11 11 11 10 10 10 10 10 9 10 10 10 10 10 9 10 10 10 11 12 13 13 13 12 13 14 12 12 12 12 13 14 12 12 12 11 11 12 11 11 11 11 11 11 10 10 9 9
26 25 25 24 23 23 23 23 23 22 22 22 21 20 20 19 19 18 18 17 17 16 16 15 14 14 14 13 14 13 12 12 11 11 12 12 12 12 12 11 11 11 11 11 11 10 11 11 11 11 10 10 11 10 10 11 11 11 12 14 15 15 15 14 14 14 12 13 14 13 14 14 12 13 13 12 12 12 11 11 11 11 11 11 11 11 10 10
27 26 26 25 24 23 23 23 23 23 23 23 22 21 21 20 20 19 19 18 18 17 17 16 16 15 15 15 15 14 14 14 13 12 12 12 12 12 12 12 12 12 11 12 11 11 12 11 11 12 11 11 11 11 10 11 12 12 13 14 15 15 16 15 15 14 12 12 12 12 14 14 13 13 12 11 12 12 11 12 12 11 12 12 12 12 11 11
29 28 27 26 25 24 24 24 24 24 24 24 23 22 22 21 21 20 20 20 19 19 18 17 17 16 16 16 16 15 15 15 14 14 14 13 13 13 13 13 13 13 12 12 12 12 12 12 12 12 12 12 12 12 12 12 13 14 14 14 15 16 16 15 14 12 12 12 12 12 13 14 13 12 10 10 11 11 11 12 12 12 12 13 13 13 13 12
30 30 29 28 27 26 25 24 24 25 25 24 24 23 23 22 22 22 21 21 21 20 19 19 18 18 18 17 16 17 17 16 16 15 15 15 15 14 14 14 14 14 13 13 13 13 13 13 13 13 13 13 13 13 14 14 14 15 15 14 15 15 15 13 11 11 12 13 12 12 14 15 12 11 11 11 12 12 12 12 13 13 13 14 14 14 14 14
32 31 30 29 28 27 26 26 25 25 25 25 25 24 24 24 23 23 22 22 22 21 21 20 20 19 19 19 17 18 18 17 17 17 16 16 16 15 15 15 14 14 14 14 14 14 14 14 14 14 13 14 14 14 15 15 14 15 15 15 14 14 14 13 12 13 13 13 14 13 14 15 12 11 12 13 13 13 14 13 14 14 14 15 15 15 15 14
34 33 32 31 30 29 28 27 27 26 26 26 26 26 25 25 24 24 24 23 23 22 21 21 21 20 20 19 19 19 19 19 18 18 18 17 17 16 15 15 15 15 15 15 15 15 15 15 15 15 14 14 15 15 16 16 15 15 15 16 15 14 15 14 14 15 14 13 14 15 15 15 13 12 13 14 14 15 15 15 15 15 16 16 16 16 15 15
35 34 34 33 32 31 30 29 28 27 27 27 27 26 26 26 26 25 25 25 24 23 23 22 21 21 21 20 20 20 19 19 19 19 19 18 18 17 16 16 16 16 16 15 16 16 16 16 16 16 16 16 16 16 16 16 16 15 16 16 16 16 16 15 15 15 14 14 16 17 17 17 15 14 15 16 16 16 17 17 16 16 17 17 17 17 17 17
37 36 35 34 33 33 32 30 29 29 28 28 27 27 27 27 27 26 26 26 25 24 24 24 22 22 23 22 21 20 19 19 19 19 19 19 18 18 17 17 17 16 16 17 17 17 17 17 16 17 17 17 17 17 16 16 16 16 16 16 16 16 16 16 15 15 15 16 17 17 18 19 18 16 17 18 18 18 18 18 18 18 18 18 18 18 18 18
39 38 37 36 35 34 33 32 31 30 29 29 28 28 28 27 27 27 27 27 26 25 24 25 25 23 22 22 22 20 20 20 19 19 20 19 19 19 18 18 18 18 18 18 18 18 17 17 17 18 18 18 18 19 19 19 18 18 17 17 17 17 17 17 16 16 17 18 19 19 20 20 20 19 18 19 19 19 19 19 19 18 19 19 19 19 19 19
40 39 38 37 36 35 34 34 33 31 31 30 29 29 28 28 27 28 28 29 29 28 26 26 26 25 24 22 22 21 21 21 20 20 20 20 19 19 19 19 19 19 20 19 19 19 18 19 20 19 18 19 20 20 20 21 20 19 18 19 20 19 19 19 18 18 18 19 20 21 21 22 21 21 19 19 20 21 20 21 20 19 19 20 20 20 20 19
41 41 40 39 38 37 36 35 34 33 32 31 31 30 29 28 28 27 28 30 31 32 31 29 28 28 26 25 24 23 22 22 22 21 21 21 20 20 20 20 20 20 21 20 19 19 19 21 21 20 20 21 21 20 20 21 21 21 20 20 21 20 21 20 19 18 18 19 21 22 23 24 22 22 21 20 20 21 22 22 22 21 20 21 21 21 21 20
42 41 41 40 39 38 37 36 35 35 34 33 33 32 30 30 29 29 28 29 31 32 33 33 31 30 28 27 27 26 24 23 23 23 23 22 21 21 21 21 21 21 21 21 20 19 21 23 23 21 21 22 22 20 20 21 21 21 20 21 21 21 21 21 19 18 19 20 22 22 24 25 23 23 23 23 22 23 24 24 24 23 22 22 21 21 21 20
42 42 41 41 40 39 38 38 37 36 35 35 34 34 32 31 31 30 30 30 31 32 33 34 34 33 31 30 29 28 27 26 25 26 25 24 23 23 22 22 22 22 22 22 21 21 22 23 23 23 22 22 21 20 21 21 21 21 21 22 22 21 21 21 19 20 20 21 22 23 25 26 25 25 25 26 26 24 23 23 23 23 23 22 22 22 22 22
43 42 42 41 40 40 39 38 38 37 36 36 36 35 33 32 31 31 31 31 32 33 34 35 35 35 33 31 31 31 30 29 28 27 27 26 24 24 24 23 23 23 23 23 23 24 24 23 22 22 22 22 21 21 21 22 22 22 22 22 23 22 22 21 21 21 21 22 23 24 26 26 25 25 25 23 23 21 20 19 20 20 20 20 21 22 22 23
44 43 42 41 41 40 39 38 39 38 37 37 37 36 34 33 31 31 30 31 34 33 33 35 34 35 35 32 32 31 31 31 30 28 28 28 25 24 25 25 24 25 25 25 25 26 26 24 22 22 22 21 22 22 21 21 22 23 22 23 23 23 23 22 21 21 22 23 22 21 22 23 21 21 21 19 19 20 19 19 20 20 19 19 20 21 22 22
45 44 43 42 41 40 39 39 39 38 38 38 37 36 35 34 31 31 29 30 34 34 32 33 33 33 34 33 32 30 30 32 31 29 29 28 27 25 25 25 25 26 25 25 25 25 25 24 22 22 22 22 23 23 22 21 22 23 23 22 22 22 22 22 22 22 22 22 21 19 21 24 24 23 22 20 21 22 21 22 23 22 21 21 21 21 21 21
46 45 44 43 42 41 40 39 38 39 38 37 37 36 35 33 31 30 28 29 34 34 32 34 33 33 33 33 32 29 30 30 28 29 29 28 28 27 26 27 26 26 25 24 25 25 23 23 23 22 22 23 24 24 23 22 23 24 23 22 20 21 22 22 22 23 23 23 23 22 22 26 28 26 24 23 23 23 23 24 24 24 24 24 22 21 21 21
48 47 46 45 44 44 41 38 38 40 38 36 36 36 35 33 31 30 27 28 31 30 30 32 33 33 32 32 33 30 29 29 27 28 29 27 27 27 28 28 27 26 25 25 27 26 24 24 23 23 23 24 24 23 23 23 23 23 22 21 20 20 21 21 22 23 23 24 24 23 21 24 28 26 23 23 24 24 24 24 24 24 25 24 23 22 21 21
49 48 47 46 45 46 43 40 39 39 38 36 35 36 35 33 32 29 26 29 31 30 30 30 31 31 31 32 34 31 29 30 29 29 28 27 27 26 27 28 28 27 27 28 28 26 25 25 24 23 24 24 23 22 23 22 23 23 21 20 20 21 21 22 23 23 23 25 26 23 20 22 27 27 23 22 23 23 24 23 23 23 23 23 23 22 21 22
48 48 48 47 46 47 46 43 41 39 37 36 36 35 34 33 32 29 28 31 32 30 30 30 30 31 30 31 32 31 30 30 29 28 28 28 28 27 27 27 27 28 27 27 28 26 25 25 25 25 24 24 22 21 22 21 21 22 21 20 21 22 22 22 23 22 23 26 26 24 22 22 25 24 20 21 22 21 21 21 20 20 21 22 22 22 22 23
48 48 48 48 47 47 46 45 44 40 37 37 36 35 34 33 32 31 32 33 31 31 31 31 30 31 32 31 31 31 31 30 29 29 29 29 28 28 28 27 27 27 27 27 27 26 26 26 25 25 24 23 22 22 22 22 21 21 21 21 21 21 20 21 22 21 22 25 24 23 23 24 26 24 20 20 19 18 19 19 19 19 19 21 22 22 23 23
47 47 47 48 47 47 47 46 45 42 40 39 37 37 35 33 33 36 35 31 30 32 33 31 31 32 32 32 32 32 30 29 30 29 29 28 29 29 29 29 27 26 27 28 28 27 27 28 26 25 25 24 23 23 23 23 23 22 21 20 19 19 20 20 20 20 23 25 23 22 22 24 29 28 25 23 21 19 19 19 18 18 19 21 21 22 23 23
46 46 46 47 47 47 47 45 44 43 42 41 40 38 36 34 36 40 39 34 30 30 30 30 31 31 31 32 31 30 30 29 29 29 28 28 28 29 30 30 29 27 26 26 26 26 26 27 26 25 26 26 25 25 24 24 23 23 22 21 20 19 20 21 21 21 23 24 24 23 21 24 27 27 27 26 22 19 19 19 18 18 19 20 21 22 22 23
45 45 45 46 46 47 47 45 44 44 43 42 41 40 39 38 39 41 42 40 35 31 29 28 29 30 31 31 30 29 29 29 29 28 28 28 28 29 30 30 31 29 26 24 25 25 24 25 24 24 23 23 25 25 24 23 23 24 23 22 22 20 20 21 20 20 22 22 23 22 21 23 24 23 23 22 18 17 18 18 18 18 18 19 20 21 22 23
47 45 44 45 45 46 47 45 45 44 43 42 41 41 42 41 42 43 43 42 38 34 32 29 28 30 31 31 30 30 29 29 29 29 29 29 29 29 29 30 31 29 26 25 25 24 25 25 23 22 21 20 22 23 22 21 23 24 22 22 24 23 22 22 21 22 22 22 23 23 24 25 24 24 22 19 18 17 18 18 17 17 17 18 19 20 21 23
47 46 45 46 46 46 46 46 45 45 45 43 41 43 44 44 43 42 41 40 38 37 34 32 31 32 32 32 32 31 30 29 29 29 30 30 30 31 30 29 29 29 28 27 24 23 24 24 23 22 22 21 22 22 22 22 22 21 21 23 24 22 22 23 23 22 22 24 25 24 27 28 26 27 24 21 21 19 19 19 18 17 18 18 19 21 22 23
47 47 46 47 47 46 46 45 44 46 46 44 45 46 45 46 45 42 39 38 38 38 37 36 35 35 34 33 33 33 30 29 30 29 29 29 30 32 32 30 29 31 30 28 26 24 23 23 24 22 22 22 22 22 22 22 21 21 22 23 21 20 21 22 22 22 21 25 26 25 28 28 25 27 24 21 22 22 21 20 19 19 19 19 20 21 22 23
47 46 47 48 47 46 46 45 43 45 44 43 46 47 45 46 47 44 42 39 37 38 40 39 37 35 35 34 33 33 32 30 31 30 29 29 29 30 31 30 30 31 31 29 27 26 24 25 25 24 23 22 22 22 22 23 22 22 23 23 20 20 22 21 21 22 22 24 25 25 27 28 27 27 25 23 23 22 21 20 20 20 20 20 21 22 23 23
45 44 45 47 47 45 45 44 43 43 42 41 45 45 44 46 46 45 45 42 38 39 41 41 39 36 36 35 33 33 33 33 32 31 30 30 29 29 29 29 28 30 30 30 28 26 26 26 26 26 25 23 23 23 24 24 23 22 24 24 22 21 21 22 22 22 21 23 26 26 26 27 28 27 25 25 25 22 21 21 21 21 21 21 22 22 23 23
42 41 42 45 47 46 45 43 41 40 40 41 43 43 42 43 43 44 46 45 41 40 41 41 40 38 38 37 35 34 35 35 34 33 32 31 31 30 30 29 28 27 28 29 28 26 26 27 27 26 26 24 25 26 26 26 25 25 25 25 24 23 21 22 24 24 23 23 24 26 28 28 26 24 24 24 24 21 20 20 21 21 21 22 23 23 24 24
40 39 40 43 46 47 45 43 41 40 40 41 42 41 40 40 39 40 45 46 43 41 41 40 40 40 40 38 36 35 35 35 36 35 35 34 33 32 31 30 28 26 25 26 27 27 27 28 28 27 27 27 27 27 26 26 26 27 27 27 27 25 23 23 25 26 25 26 25 25 30 31 26 24 24 24 23 21 20 20 20 20 21 23 24 24 25 25
40 38 38 41 44 46 43 41 41 41 42 43 43 41 39 39 38 38 41 43 42 41 39 39 39 40 40 39 37 35 34 35 36 37 37 37 36 34 32 32 30 28 27 27 28 27 26 27 29 29 29 29 28 27 26 26 26 27 28 28 27 27 26 25 26 25 25 29 29 27 31 33 28 25 24 23 23 23 21 21 20 20 22 23 24 25 26 27
42 40 37 39 45 46 42 40 41 41 41 42 43 42 39 38 39 38 39 41 42 41 40 39 39 40 39 38 37 36 35 35 37 38 38 37 37 35 34 34 32 30 29 28 28 27 25 27 29 29 28 28 27 27 27 26 26 28 30 29 28 29 29 28 28 26 25 29 29 27 30 32 28 26 25 25 25 24 23 22 21 21 22 23 25 26 27 27
43 43 41 41 44 46 42 41 42 42 41 42 42 42 41 39 39 38 38 39 41 41 41 41 41 40 39 38 37 36 35 35 36 37 37 35 35 34 35 35 34 33 32 31 30 28 28 28 27 25 26 26 27 27 28 28 28 29 30 29 30 31 29 29 30 28 30 33 29 27 32 32 28 27 26 26 25 23 22 22 22 22 23 24 25 26 27 28
42 42 43 44 46 46 44 42 42 42 43 43 43 42 42 41 40 40 38 38 39 39 40 41 41 40 39 38 38 37 37 37 36 36 36 35 34 34 35 36 35 35 35 33 32 30 30 31 29 27 28 29 29 29 28 28 28 29 30 30 32 32 30 30 29 29 33 34 29 31 35 33 29 28 28 27 25 24 23 23 22 22 23 25 26 26 27 28
42 41 41 42 45 47 46 43 41 41 42 44 43 42 43 43 42 42 41 39 38 39 38 38 38 38 39 39 41 41 41 40 38 36 36 35 34 33 33 35 36 36 34 32 32 31 31 33 34 35 35 35 35 33 29 27 28 30 32 32 33 34 33 32 30 33 35 31 31 36 37 35 33 30 29 29 27 26 25 24 23 23 24 25 26 27 28 29
42 42 41 40 41 43 44 42 40 39 41 43 42 41 44 44 42 41 42 41 40 39 38 37 36 37 39 40 41 42 42 41 39 38 38 35 33 32 32 33 35 35 32 32 33 32 32 34 37 39 40 40 40 37 32 30 31 33 33 33 34 35 35 35 37 39 34 29 35 39 34 36 38 32 30 32 29 27 27 26 26 25 24 25 26 27 29 29
44 43 42 41 40 40 41 42 41 40 41 41 40 40 43 45 43 41 41 41 40 39 37 37 38 39 40 40 39 39 40 39 40 41 40 37 34 34 34 33 34 34 32 33 34 33 33 36 38 39 41 42 41 39 36 34 35 35 34 35 36 35 36 40 42 41 35 34 41 40 33 38 41 34 32 33 30 30 31 29 28 26 26 27 28 29 31 30
45 44 43 43 42 40 41 41 39 39 40 40 39 40 41 43 44 42 39 38 39 40 38 38 40 41 40 38 37 38 38 38 40 41 40 38 36 35 36 35 34 33 31 32 34 33 34 37 37 36 39 41 41 40 38 37 37 37 36 37 37 37 40 42 42 41 39 41 45 42 38 41 40 34 32 33 32 32 30 29 29 28 28 29 30 31 32 31
43 45 45 44 43 41 41 41 39 38 38 38 39 40 41 42 43 41 39 39 39 40 40 42 42 40 39 39 38 39 40 39 41 40 38 37 37 36 37 36 35 33 33 33 34 34 34 36 35 33 35 40 42 40 39 38 39 40 40 40 41 42 42 41 40 39 39 42 45 42 42 43 39 34 33 33 32 30 28 28 29 30 30 30 30 31 32 32
42 43 44 44 45 44 42 41 41 41 40 38 38 39 40 43 42 39 39 41 41 39 40 43 44 40 38 39 40 41 41 40 40 39 36 35 37 36 37 37 35 35 35 35 35 35 35 35 34 33 34 39 42 40 39 40 39 40 43 45 47 46 42 39 39 39 39 41 42 40 41 43 37 32 33 33 31 30 30 30 29 30 32 32 32 33 33 33
41 42 43 43 44 45 45 43 42 43 43 41 40 39 39 41 41 39 38 38 40 41 40 41 42 40 39 40 41 42 41 38 38 37 35 35 36 36 36 36 36 36 36 36 35 35 36 36 35 35 35 40 42 39 37 37 36 39 44 47 48 46 42 40 41 41 40 40 40 40 41 40 35 32 33 33 32 32 32 32 31 31 32 33 34 34 34 34
Wind_Direction
207 207 207 206 206 205 205 203 203 203 203 202 202 202 202 202 203 205 207 209 211 214 216 218 220 223 228 232 237 243 248 243 236 233 228 228 232 229 227 227 225 224 226 232 235 243 248 242 246 254 252 252 260 265 269 275 273 274 271 268 278 278 278 283 289 285 268 267 269 261 263 262 245 238 245 259 262 261 258 256 272 289 297 295 297 295 296 299
207 207 207 207 206 206 206 205 204 204 204 204 204 204 204 205 207 209 211 212 214 215 216 218 222 226 230 234 239 247 247 240 233 230 231 234 230 225 224 222 222 224 229 237 242 248 252 249 251 256 254 251 257 264 266 275 274 270 269 271 282 282 280 288 296 295 287 275 267 269 277 272 257 249 252 264 257 252 262 258 252 270 281 285 292 294 295 293
208 208 208 207 207 207 207 206 206 206 206 206 206 206 207 209 211 212 213 214 215 216 218 221 225 230 233 237 243 248 245 238 228 225 235 233 223 219 218 218 220 226 231 240 247 249 252 254 256 258 258 254 257 264 261 270 273 266 270 280 286 280 282 294 296 295 297 289 274 266 272 268 258 256 258 267 268 262 272 271 255 254 268 278 286 288 287 284
210 210 210 209 209 208 208 208 208 208 208 208 208 209 211 212 213 214 215 216 218 219 222 225 228 232 235 239 244 246 243 236 225 225 232 226 218 215 214 219 224 231 238 245 249 249 251 254 256 259 262 257 254 262 263 269 274 270 271 277 285 284 282 290 296 295 292 288 286 271 262 264 258 259 262 268 273 271 278 283 269 252 259 273 280 282 282 281
212 212 212 211 211 210 210 210 210 210 211 211 212 213 214 215 215 216 217 219 221 223 226 228 231 234 237 240 243 243 240 232 223 223 225 221 217 216 219 225 232 240 247 250 251 252 253 254 256 258 258 258 255 262 268 271 273 274 276 276 285 290 284 282 289 288 283 281 281 272 264 266 265 262 261 262 267 268 269 275 276 268 268 274 273 274 278 279
214 214 214 214 214 213 213 213 213 213 214 214 215 216 217 217 217 218 220 222 224 226 228 230 233 236 239 242 240 238 235 227 222 222 224 223 221 223 228 234 240 247 252 254 254 254 256 254 253 256 258 262 265 266 269 272 272 274 277 276 284 288 282 278 280 279 281 281 277 273 271 272 272 269 263 261 265 266 264 264 269 273 272 271 268 269 272 274
216 216 216 216 216 216 216 216 216 216 217 217 218 219 219 219 219 221 222 224 226 228 230 232 235 237 242 241 235 234 232 225 224 225 225 227 228 231 236 241 246 251 254 255 255 256 257 256 255 260 264 265 270 269 270 273 270 271 274 272 281 286 282 279 277 276 278 277 276 278 277 272 269 271 270 266 264 261 262 264 265 268 268 265 264 265 267 267
218 218 219 219 219 219 219 219 219 220 220 220 221 220 220 220 221 223 225 227 228 230 231 233 236 239 241 238 235 236 233 225 225 227 229 232 235 238 243 247 249 253 256 254 255 257 256 258 261 264 265 264 268 267 269 274 270 273 278 276 280 281 278 276 275 273 273 273 274 274 272 268 266 269 272 265 260 260 261 263 264 263 264 262 260 261 263 265
219 220 220 220 221 221 221 222 222 222 222 222 222 222 222 222 223 225 227 229 230 232 233 235 237 240 240 236 236 238 233 228 228 231 233 237 239 242 246 249 252 254 256 253 253 255 255 259 262 265 267 266 268 268 269 273 274 279 282 281 279 277 273 271 272 271 269 269 270 268 267 266 265 268 272 264 257 259 259 260 261 260 260 258 259 261 262 264
221 221 221 222 223 223 223 223 223 224 223 224 224 223 224 224 226 228 229 231 232 234 235 237 239 240 238 235 237 237 233 232 233 234 236 239 240 243 246 249 254 255 254 253 253 255 257 260 261 262 266 266 266 267 270 272 274 280 284 284 280 278 276 271 270 270 268 267 264 263 267 268 265 265 270 265 257 257 257 258 258 256 256 255 256 259 262 264
222 222 222 223 224 224 225 224 224 224 224 224 224 225 226 227 228 230 231 233 234 235 236 238 240 240 239 237 239 238 233 234 237 237 238 240 241 243 246 250 254 255 254 253 252 255 258 260 261 262 263 266 267 265 269 272 273 279 282 283 279 274 275 271 271 270 268 269 262 261 269 269 265 267 267 260 254 255 254 255 254 254 254 252 253 257 261 264
223 223 224 224 225 225 226 226 226 225 225 225 226 227 228 229 230 232 234 234 235 237 237 239 240 239 240 239 239 238 236 238 240 240 241 242 242 244 247 251 253 255 256 254 253 254 257 260 261 262 264 267 269 266 268 273 275 279 278 281 281 275 274 269 267 267 266 271 265 263 272 267 261 265 265 255 251 252 252 253 252 252 253 252 253 255 260 264
224 224 225 225 226 226 227 227 227 227 227 227 228 229 230 231 232 234 235 236 237 238 239 240 240 240 241 241 239 238 239 241 243 243 244 244 245 247 249 251 253 254 255 255 254 254 255 259 261 263 266 268 270 268 272 273 274 279 276 278 284 283 279 269 265 267 266 271 267 265 272 270 264 262 259 253 249 248 250 252 251 251 252 252 253 255 259 263
225 226 226 227 227 228 229 229 229 229 229 229 230 231 232 233 234 235 237 238 239 239 240 241 240 240 241 241 241 240 241 243 245 245 245 245 247 250 250 251 254 254 255 255 255 256 256 258 261 263 263 266 270 270 273 272 272 279 279 279 281 283 284 277 271 268 269 272 266 264 270 272 272 263 256 254 251 249 250 251 251 251 252 252 253 255 259 262
227 227 227 228 228 229 230 230 230 230 230 231 231 233 234 234 235 237 238 239 240 240 241 241 240 241 243 243 242 242 243 244 245 245 246 247 249 250 250 251 253 254 255 255 255 256 257 258 261 263 262 264 269 271 273 273 272 276 279 281 280 278 280 279 271 264 269 272 264 264 270 271 271 262 256 255 252 251 252 251 251 252 252 253 254 256 259 262
229 229 229 229 228 229 231 232 232 232 232 232 233 234 235 236 236 237 239 239 240 241 241 241 240 241 245 244 242 244 245 245 245 246 247 248 250 250 250 251 253 254 254 255 256 256 257 259 261 263 263 264 267 269 273 276 276 274 274 279 280 276 275 276 273 267 269 270 264 265 270 272 268 258 254 254 252 252 255 253 251 252 253 253 255 257 259 261
229 230 231 230 229 230 231 232 233 233 233 234 235 236 236 236 237 238 240 239 240 240 240 242 242 242 244 244 243 244 245 245 245 246 247 248 250 250 250 251 252 253 254 255 256 256 258 259 260 263 263 264 267 268 272 274 274 274 273 276 278 274 273 274 275 272 268 269 268 266 268 271 267 257 253 254 252 252 256 254 251 252 254 255 256 257 258 260
229 230 231 231 231 231 232 233 233 233 234 235 235 236 236 238 238 239 239 238 239 240 241 242 242 244 245 242 242 244 244 244 245 247 248 248 250 250 250 252 252 251 253 255 256 256 258 260 260 264 264 264 266 266 266 269 273 278 276 276 278 277 274 274 276 271 265 269 270 266 266 269 269 262 255 254 253 252 254 255 253 252 253 255 256 256 258 259
230 230 231 232 232 232 232 233 233 233 234 235 236 236 237 238 238 239 239 238 237 239 243 241 238 243 245 241 241 243 243 244 246 247 248 248 249 249 250 253 252 251 253 257 257 254 257 260 260 263 264 263 264 265 266 269 273 279 280 276 277 278 276 276 276 269 266 270 269 267 269 270 270 267 259 255 254 255 256 258 257 254 254 255 255 256 256 256
230 230 231 231 232 232 233 234 234 234 234 235 236 236 237 237 238 239 238 238 239 241 245 242 239 243 245 242 241 242 243 245 248 248 247 248 249 249 250 252 253 255 258 258 258 257 258 260 260 261 262 263 263 263 267 271 272 275 277 275 275 276 275 276 275 269 270 272 269 269 272 271 271 271 264 255 254 258 259 260 260 257 255 254 254 254 254 255
231 231 231 231 232 232 233 234 233 234 235 235 236 236 237 238 239 241 239 241 242 243 245 243 242 244 244 243 241 241 244 247 248 248 248 248 248 249 250 251 253 257 258 257 259 263 261 260 260 260 261 264 265 264 265 267 269 271 273 274 274 273 274 276 273 269 270 271 271 273 273 273 272 272 268 259 255 259 259 260 261 258 256 255 253 252 253 255
231 231 231 231 232 232 232 233 233 234 235 235 236 237 239 240 240 242 243 245 245 242 243 244 244 245 244 242 241 243 245 246 247 247 248 247 247 251 251 251 255 257 257 256 260 263 262 262 262 261 263 264 265 268 266 265 268 270 272 273 273 273 276 276 273 271 272 271 273 275 274 274 273 272 271 266 261 260 258 258 259 257 255 255 254 252 252 253
231 231 231 232 232 232 232 233 233 234 234 235 236 237 239 241 241 243 245 248 248 244 242 242 243 243 243 242 242 244 245 246 247 246 245 245 247 251 251 251 256 258 256 255 258 261 261 264 262 258 261 264 264 266 268 268 269 269 270 271 271 272 274 275 274 273 272 271 273 277 276 274 274 273 270 266 264 264 262 262 264 262 257 254 253 252 251 250
231 231 231 231 232 232 232 233 234 234 235 236 237 237 239 241 243 245 247 250 249 245 242 241 242 242 241 243 243 243 246 247 248 246 242 243 247 251 253 253 255 258 258 256 257 260 263 266 262 257 260 262 263 264 265 267 269 268 268 268 270 272 271 271 272 272 272 271 272 277 278 275 273 271 269 267 266 266 264 263 266 267 262 256 254 253 251 251
230 231 231 231 232 231 231 233 234 234 235 236 238 238 239 241 243 245 248 251 250 246 244 242 242 243 241 242 242 242 246 247 248 247 242 243 246 251 254 254 255 258 258 257 258 262 263 264 263 260 261 261 262 264 262 263 269 270 268 267 267 269 271 272 273 274 276 276 273 275 277 275 273 270 270 272 269 267 266 263 262 264 263 259 256 254 252 252
230 230 230 230 231 230 230 234 234 234 235 237 238 238 239 241 243 245 247 251 251 246 243 241 241 243 241 240 239 242 249 249 248 246 243 245 248 252 255 254 256 258 259 259 260 263 263 262 264 262 260 259 261 264 262 262 268 270 271 272 270 268 271 272 274 273 273 274 273 271 272 276 277 273 272 272 268 266 267 267 264 261 261 260 257 254 252 250
232 231 230 230 230 228 230 234 234 233 235 238 238 237 237 238 241 244 246 252 252 245 242 242 241 242 241 239 236 240 248 248 246 246 245 247 249 252 255 254 255 258 261 262 260 262 262 261 263 262 259 259 260 263 263 262 266 268 271 276 274 272 271 271 272 270 270 274 272 268 272 277 276 274 272 270 267 267 266 267 267 262 258 257 256 253 251 249
232 232 231 231 230 229 231 234 233 232 235 237 236 234 234 235 238 241 243 248 249 244 243 243 241 243 242 238 235 239 246 245 246 249 247 248 250 252 254 254 255 257 258 258 258 263 263 258 259 259 259 261 261 265 265 262 264 267 269 273 273 272 273 273 272 270 273 275 270 267 271 275 275 275 273 269 267 268 268 268 267 261 256 253 252 251 249 249
232 232 232 231 231 231 232 234 234 233 235 236 234 231 231 233 236 240 241 244 245 246 246 242 241 241 239 237 238 240 245 248 251 250 247 248 250 252 254 255 257 257 255 254 256 262 263 261 261 260 260 261 263 269 269 264 263 264 266 270 271 271 271 272 271 271 274 271 266 266 268 272 277 277 273 270 269 270 271 271 266 259 254 251 249 249 249 248
231 231 231 231 232 231 232 235 235 234 234 234 232 229 228 232 235 235 238 242 245 248 247 244 242 239 236 238 241 242 245 250 252 249 248 249 250 253 256 256 257 258 257 256 257 259 259 262 264 262 262 263 262 267 270 266 262 261 265 269 271 271 271 271 270 270 271 269 266 265 263 267 276 278 273 273 274 272 272 274 270 261 254 250 248 248 248 247
231 231 230 231 232 232 232 234 234 232 232 231 229 227 228 234 235 233 236 243 247 247 246 246 244 239 237 238 242 244 246 248 248 246 249 250 250 253 253 252 253 256 258 258 259 259 258 260 262 262 261 261 261 264 268 267 263 262 265 267 270 272 272 273 270 266 268 271 272 268 262 259 265 273 280 282 283 280 276 272 269 264 255 251 249 247 246 245
231 230 230 231 232 232 232 234 232 231 230 229 227 227 229 233 234 234 237 242 247 246 244 244 244 241 239 240 242 243 244 246 245 245 249 250 250 250 250 250 249 251 255 255 256 258 258 258 258 261 261 257 259 262 264 267 264 261 260 260 264 269 271 270 267 265 267 271 275 273 265 260 263 269 277 280 282 283 282 274 265 260 255 251 248 246 245 243
230 230 231 231 232 232 232 233 231 229 229 228 228 230 231 232 233 235 236 238 244 247 245 244 244 242 240 241 242 241 242 246 244 245 248 248 250 250 251 252 249 249 254 254 254 256 259 260 255 258 262 257 254 256 259 262 259 255 255 255 255 260 267 268 266 269 270 271 275 275 268 268 272 274 274 275 277 281 284 278 265 257 254 251 248 245 244 242
229 230 231 231 231 231 231 230 230 229 229 228 229 229 228 232 235 236 236 238 241 246 247 244 242 241 241 243 243 239 242 245 242 243 246 246 248 250 250 251 249 251 254 254 254 252 255 262 255 254 260 254 251 255 256 257 256 255 256 255 254 254 261 267 267 270 274 276 276 272 268 269 274 278 278 279 281 282 284 280 268 259 255 252 249 246 243 240
230 230 231 231 231 231 229 228 228 228 227 227 228 227 226 231 236 236 238 238 238 243 244 242 241 240 242 244 244 242 245 246 241 242 245 245 248 249 249 249 247 247 248 250 255 252 253 260 256 253 257 249 249 256 254 254 257 258 256 254 255 256 259 266 269 270 275 279 274 267 267 270 274 277 277 279 282 282 282 279 269 259 253 249 247 245 242 240
231 231 232 231 231 230 228 227 227 226 226 226 227 228 229 233 236 238 239 238 236 238 239 240 242 242 241 244 245 244 247 247 243 243 246 247 250 249 249 249 245 244 245 246 252 252 253 260 258 257 257 251 254 257 252 251 256 257 254 252 257 260 259 263 271 274 274 275 272 267 269 274 277 277 273 272 277 278 276 275 268 257 250 246 245 243 241 239
231 232 232 231 230 228 226 226 226 226 226 227 228 230 232 235 238 239 239 238 237 236 238 241 243 242 241 243 244 243 245 247 244 245 247 247 250 249 247 248 244 243 245 247 251 253 252 257 259 258 257 257 260 260 254 253 254 253 254 256 260 264 263 262 271 276 271 272 273 268 268 273 274 275 275 271 272 274 271 268 265 258 250 246 245 243 240 239
231 232 232 230 228 226 224 225 226 225 226 228 230 232 234 236 238 238 237 238 237 236 238 241 241 241 241 241 243 241 242 244 243 244 245 246 250 248 244 247 246 242 244 245 249 253 252 255 259 259 258 259 260 257 254 255 255 255 259 260 259 262 262 260 265 271 269 272 277 271 269 271 268 271 275 271 268 270 268 264 262 258 251 248 246 242 240 239
229 231 232 229 225 224 223 223 224 225 226 227 229 233 236 238 238 237 236 237 237 237 239 240 240 241 241 241 243 242 242 243 242 243 246 246 250 247 242 246 248 244 242 242 246 251 251 252 257 259 259 257 256 253 250 252 255 258 261 260 258 260 261 259 261 267 268 272 277 276 274 273 271 271 270 266 266 266 264 262 261 257 250 248 246 242 239 239
227 231 233 228 223 222 221 221 222 223 226 227 229 234 237 239 239 237 234 235 236 239 241 240 239 240 242 241 242 243 244 244 243 244 247 246 248 249 244 245 248 246 241 241 246 249 249 250 254 258 258 253 252 252 250 251 252 253 255 255 255 258 263 265 265 264 266 271 277 278 277 276 276 275 269 264 265 265 261 261 261 256 250 247 245 242 240 239
226 231 233 226 222 219 218 221 223 224 226 227 230 235 237 237 238 236 234 234 236 238 240 241 239 239 241 241 242 243 244 244 244 245 248 247 248 250 247 244 245 244 241 242 245 247 248 250 251 253 254 252 253 255 254 255 254 253 254 254 254 255 259 267 269 265 263 267 271 275 277 276 276 277 273 268 268 268 262 260 259 254 248 246 245 244 241 241
226 229 230 223 219 216 218 224 226 227 229 229 231 235 235 235 236 235 234 233 235 237 238 240 239 239 240 240 241 242 243 245 245 246 248 248 248 250 247 243 242 240 240 245 248 248 250 251 250 251 252 254 257 257 255 256 257 257 257 255 255 257 257 259 266 268 264 264 267 272 276 277 278 279 277 275 275 271 262 257 257 253 249 247 246 244 243 243
227 228 227 222 218 217 220 226 227 227 231 233 234 235 234 234 234 234 234 233 234 235 236 239 240 240 240 240 240 240 241 244 245 245 248 249 249 250 245 241 241 240 242 248 250 250 251 250 250 252 255 257 259 259 258 258 256 256 257 256 256 257 257 259 263 267 267 264 264 268 271 274 279 281 279 280 280 276 265 257 255 255 253 249 246 245 245 245
228 229 228 224 219 218 223 228 226 227 231 233 233 233 233 235 234 233 233 232 233 235 237 239 240 241 241 240 240 239 239 243 245 245 247 249 251 250 243 238 240 242 246 248 247 247 249 248 248 251 255 256 256 257 258 257 256 257 259 258 257 256 258 262 264 266 267 264 261 264 269 272 278 282 281 281 282 279 273 265 258 256 254 249 246 246 246 247
228 228 228 226 222 222 226 229 228 229 230 230 232 231 232 235 234 234 236 235 234 235 237 240 240 240 241 240 240 240 238 241 245 246 247 249 252 252 245 239 240 244 248 248 244 244 248 248 245 244 248 250 252 255 257 257 257 259 258 255 255 255 254 259 262 261 263 264 259 260 266 271 276 278 279 279 278 276 275 271 263 257 253 249 248 248 248 248
226 227 227 226 225 225 228 230 230 231 230 230 232 232 232 234 235 235 237 238 237 236 238 240 238 238 240 238 239 240 240 242 245 247 248 248 250 253 248 242 242 245 248 246 241 244 251 250 245 243 246 249 254 258 259 258 257 257 256 255 255 255 254 256 259 257 260 266 263 260 264 270 272 272 273 274 273 271 271 269 264 260 255 251 249 250 249 249
224 225 225 225 225 226 228 229 229 230 230 229 231 232 232 234 235 235 235 237 239 239 239 240 237 236 237 236 237 240 241 243 244 245 247 247 250 254 253 250 247 246 247 245 241 245 251 250 247 246 248 251 256 258 258 257 257 257 257 256 255 256 255 253 255 257 259 264 265 263 263 267 268 267 267 269 270 270 269 266 263 261 258 254 253 252 250 250
223 225 224 224 226 227 228 228 228 229 229 227 229 232 233 234 235 234 235 236 238 238 238 238 236 236 237 236 238 240 241 242 243 244 245 246 249 252 253 255 253 249 249 248 246 248 251 251 250 250 251 254 257 258 258 257 258 258 257 257 257 256 254 252 254 257 256 256 262 265 262 263 268 268 265 266 266 266 266 264 262 260 257 255 254 252 250 250
224 225 225 225 227 228 229 229 227 228 229 228 230 231 232 233 233 234 235 236 236 235 235 237 237 237 238 238 238 240 240 240 242 244 245 246 248 250 251 253 254 253 252 251 250 252 252 253 253 252 254 257 257 258 259 258 259 260 259 259 258 256 254 254 256 257 255 255 261 265 264 264 268 268 265 263 263 264 265 263 260 258 255 255 253 251 249 251
225 225 225 225 228 229 230 229 227 228 229 230 231 233 232 233 233 233 234 234 234 234 234 236 238 238 239 239 239 240 241 241 243 245 246 247 248 250 250 251 252 252 252 251 252 254 252 253 254 254 256 258 257 258 259 258 259 261 261 260 258 257 257 257 258 258 257 258 261 264 264 266 267 267 266 263 261 262 263 260 258 258 256 255 253 250 251 255
226 226 226 227 229 229 229 230 229 230 231 231 232 234 234 235 235 235 236 235 236 236 235 237 240 240 241 241 240 241 243 243 246 249 249 248 249 249 250 251 250 250 250 250 252 252 251 253 255 255 255 257 257 258 258 259 260 261 260 258 257 257 258 258 259 259 256 258 261 261 262 265 268 267 266 263 260 261 262 260 259 258 256 254 252 252 256 260
227 228 227 228 230 229 229 231 231 232 233 232 233 234 235 236 237 236 238 238 237 238 237 238 240 241 241 240 240 242 246 247 250 252 251 250 251 251 250 250 248 247 248 249 251 251 249 251 253 253 254 257 258 258 258 260 260 257 257 258 258 258 259 258 259 258 256 257 259 259 261 266 269 265 263 263 262 262 262 261 259 257 256 255 254 257 260 261